Location: Skalnate Pleso
(49.1889°N, 20.2450°E)
Time: 22:49:26
(UTC+01:00)

AQUARIUS - Pass Details

Date: 19 November 2019
Orbit: 650 x 653 km, 98.0° (Epoch: 13 December)

Event Time Altitude Azimuth Distance (km) Brightness Sun altitude
Rises 06:02:54 0° 15° (NNE) 2,986 7.5 -8.5°
Reaches altitude 10° 06:05:08 10° 17° (NNE) 2,070 6.7 -8.2°
Maximum altitude 06:09:39 74° 103° (ESE) 684 4.5 -7.5°
Drops below altitude 10° 06:14:07 10° 188° (S) 2,052 6.9 -6.8°
Sets 06:16:20 0° 191° (S) 2,958 7.7 -6.5°
